Location: Santaluz Observatory
(32.9930°N, 117.1510°W)
Time: 13:12:59
(UTC-07:00)

Hubble Space Telescope - Visible Passes

Search period start: 18 August 2017 00:00
Search period end: 28 August 2017 00:00
Orbit: 538 x 542 km, 28.5° (Epoch: 17 August)

Date Brightness Start Highest point End Pass type
(mag) Time Alt. Az. Time Alt. Az. Time Alt. Az.
18 Aug 2.9 03:57:50 19° ESE 03:57:50 19° ESE 03:59:25 10° ESE visible
18 Aug 1.4 05:33:12 12° WSW 05:36:49 43° S 05:40:45 10° ESE visible
19 Aug 3.1 03:48:17 16° ESE 03:48:17 16° ESE 03:49:25 10° ESE visible
19 Aug 1.3 05:23:39 16° WSW 05:26:41 44° S 05:30:38 10° ESE visible
20 Aug 3.4 03:38:46 13° ESE 03:38:46 13° ESE 03:39:23 10° ESE visible
20 Aug 1.3 05:14:08 21° WSW 05:16:34 44° S 05:20:30 10° ESE visible
21 Aug 3.8 03:29:18 10° ESE 03:29:18 10° ESE 03:29:19 10° ESE visible
21 Aug 1.3 05:04:40 27° WSW 05:06:25 43° S 05:10:20 10° ESE visible
22 Aug 1.3 04:55:16 34° SW 04:56:17 40° S 05:00:10 10° ESE visible
23 Aug 1.4 04:45:56 37° SSW 04:46:07 37° S 04:49:58 10° ESE visible
24 Aug 1.8 04:36:42 31° S 04:36:42 31° S 04:39:43 10° SE visible
25 Aug 2.5 04:27:36 21° SSE 04:27:36 21° SSE 04:29:26 10° SE visible
26 Aug 3.3 04:18:36 12° SE 04:18:36 12° SE 04:19:04 10° SE visible
